Time,TemperatureF,DewpointF,PressureIn,WindDirection,WindDirectionDegrees,WindSpeedMPH,WindSpeedGustMPH,Humidity,HourlyPrecipIn,Conditions,Clouds,dailyrainin,SoftwareType,DateUTC
2013-05-21 00:02:00,55.6,-99.9,29.97,ESE,115,4.0,9.0,40,0.00,,,0.00,VWS V13.01,2013-05-21 04:02:00,
2013-05-21 00:32:00,55.6,-99.9,29.97,ESE,109,0.0,7.0,40,0.00,,,0.00,VWS V13.01,2013-05-21 04:32:00,
2013-05-21 01:02:00,-39.3,-99.9,29.98,ESE,111,0.0,4.0,40,0.00,,,0.00,VWS V13.01,2013-05-21 05:02:00,
2013-05-21 01:32:00,-39.3,-99.9,29.98,ESE,119,7.0,10.0,40,0.00,,,0.00,VWS V13.01,2013-05-21 05:32:00,
2013-05-21 02:02:00,-39.3,-99.9,29.97,SE,142,3.0,11.0,40,0.00,,,0.00,VWS V13.01,2013-05-21 06:02:00,
2013-05-21 02:32:00,-39.3,-99.9,29.97,SSE,147,5.0,7.0,40,0.00,,,0.00,VWS V13.01,2013-05-21 06:32:00,
2013-05-21 03:02:00,-39.3,-99.9,29.97,SE,144,5.0,7.0,40,0.00,,,0.00,VWS V13.01,2013-05-21 07:02:00,
2013-05-21 03:32:00,-39.3,-99.9,29.98,SSW,195,0.0,6.0,34,0.00,,,0.00,VWS V13.01,2013-05-21 07:32:00,
2013-05-21 04:02:00,-39.3,-99.9,29.97,South,173,0.0,6.0,34,0.00,,,0.00,VWS V13.01,2013-05-21 08:02:00,
2013-05-21 04:32:00,-39.3,-99.9,29.96,South,170,0.0,6.0,35,0.00,,,0.00,VWS V13.01,2013-05-21 08:32:00,
2013-05-21 05:02:00,-39.3,-99.9,29.96,South,170,0.0,6.0,35,0.00,,,0.00,VWS V13.01,2013-05-21 09:02:00,
2013-05-21 05:32:00,-39.3,-99.9,29.97,SSE,163,5.0,7.0,35,0.00,,,0.00,VWS V13.01,2013-05-21 09:32:00,
2013-05-21 06:02:00,-39.3,-99.9,29.97,SE,135,3.0,11.0,35,0.00,,,0.00,VWS V13.01,2013-05-21 10:02:00,
2013-05-21 06:32:00,50.8,27.4,29.97,SSE,148,4.0,9.0,40,0.00,,,0.00,VWS V13.01,2013-05-21 10:32:00,
2013-05-21 07:02:00,51.0,28.1,29.97,SE,130,2.0,12.0,41,0.00,,,0.00,VWS V13.01,2013-05-21 11:02:00,
2013-05-21 07:32:00,51.1,28.2,29.98,SSE,155,4.0,13.0,41,0.00,,,0.00,VWS V13.01,2013-05-21 11:32:00,
2013-05-21 08:02:00,51.2,28.9,29.98,SE,141,6.0,16.0,42,0.00,,,0.00,VWS V13.01,2013-05-21 12:02:00,
2013-05-21 08:32:00,50.8,29.1,29.98,SE,134,2.0,12.0,43,0.00,,,0.00,VWS V13.01,2013-05-21 12:32:00,
2013-05-21 09:02:00,50.5,28.9,29.97,East,94,2.0,18.0,43,0.00,,,0.00,VWS V13.01,2013-05-21 13:02:00,
2013-05-21 09:32:00,50.3,28.7,29.98,SE,145,9.0,12.0,43,0.00,,,0.00,VWS V13.01,2013-05-21 13:32:00,
2013-05-21 10:02:00,50.1,28.5,29.99,South,186,4.0,17.0,43,0.00,,,0.00,VWS V13.01,2013-05-21 14:02:00,
2013-05-21 10:32:00,50.1,28.5,29.98,SE,138,3.0,14.0,43,0.00,,,0.00,VWS V13.01,2013-05-21 14:32:00,
2013-05-21 11:02:00,49.9,28.3,30.01,ESE,108,6.0,12.0,43,0.00,,,0.00,VWS V13.01,2013-05-21 15:02:00,
2013-05-21 11:32:00,50.4,28.8,30.00,ESE,113,4.0,12.0,43,0.00,,,0.00,VWS V13.01,2013-05-21 15:32:00,
2013-05-21 12:02:00,50.6,28.4,30.01,ESE,106,0.0,15.0,42,0.00,,,0.00,VWS V13.01,2013-05-21 16:02:00,
2013-05-21 12:32:00,50.8,28.5,30.01,East,97,3.0,7.0,42,0.00,,,0.00,VWS V13.01,2013-05-21 16:32:00,
2013-05-21 13:02:00,50.5,28.3,29.99,East,99,10.0,14.0,42,0.00,,,0.00,VWS V13.01,2013-05-21 17:02:00,
2013-05-21 13:32:00,50.6,29.0,29.99,ESE,118,4.0,14.0,43,0.00,,,0.00,VWS V13.01,2013-05-21 17:32:00,
2013-05-21 14:02:00,50.4,28.8,29.98,SE,125,5.0,16.0,43,0.00,,,0.00,VWS V13.01,2013-05-21 18:02:00,
2013-05-21 14:32:00,50.6,28.4,29.99,ESE,115,0.0,14.0,42,0.00,,,0.00,VWS V13.01,2013-05-21 18:32:00,
2013-05-21 15:02:00,50.8,28.5,30.00,NE,41,3.0,11.0,42,0.00,,,0.00,VWS V13.01,2013-05-21 19:02:00,
2013-05-21 15:32:00,51.0,28.7,30.00,ENE,74,3.0,13.0,42,0.00,,,0.00,VWS V13.01,2013-05-21 19:32:00,
2013-05-21 16:02:00,51.4,29.1,30.00,SE,124,5.0,12.0,42,0.00,,,0.00,VWS V13.01,2013-05-21 20:02:00,
2013-05-21 16:32:00,51.5,29.2,30.00,East,86,0.0,14.0,42,0.00,,,0.00,VWS V13.01,2013-05-21 20:32:00,
2013-05-21 17:02:00,51.6,29.3,29.99,East,88,5.0,10.0,42,0.00,,,0.00,VWS V13.01,2013-05-21 21:02:00,
2013-05-21 17:32:00,51.5,29.2,29.99,SE,124,0.0,10.0,42,0.00,,,0.00,VWS V13.01,2013-05-21 21:32:00,
2013-05-21 18:02:00,51.2,28.9,30.01,ESE,108,4.0,9.0,42,0.00,,,0.00,VWS V13.01,2013-05-21 22:02:00,
2013-05-21 18:32:00,50.8,29.1,30.02,East,101,1.0,9.0,43,0.00,,,0.00,VWS V13.01,2013-05-21 22:32:00,
2013-05-21 19:02:00,50.7,30.1,30.01,ESE,118,0.0,7.0,45,0.00,,,0.00,VWS V13.01,2013-05-21 23:02:00,
2013-05-21 19:32:00,50.5,30.0,30.01,ESE,117,0.0,0.0,45,0.00,,,0.00,VWS V13.01,2013-05-21 23:32:00,
2013-05-21 20:02:00,50.2,30.2,30.01,ESE,120,0.0,5.0,46,0.00,,,0.00,VWS V13.01,2013-05-22 00:02:00,
2013-05-21 20:32:00,49.9,30.0,30.02,ESE,121,0.0,3.0,46,0.00,,,0.00,VWS V13.01,2013-05-22 00:32:00,
2013-05-21 21:02:00,49.9,30.0,30.03,ESE,113,0.0,1.0,46,0.00,,,0.00,VWS V13.01,2013-05-22 01:02:00,
2013-05-21 21:32:00,49.9,29.4,30.03,ESE,115,0.0,6.0,45,0.00,,,0.00,VWS V13.01,2013-05-22 01:32:00,
2013-05-21 22:02:00,50.1,29.6,30.00,SE,133,3.0,7.0,45,0.00,,,0.00,VWS V13.01,2013-05-22 02:02:00,
2013-05-21 22:32:00,50.3,29.2,30.00,East,97,0.0,9.0,44,0.00,,,0.00,VWS V13.01,2013-05-22 02:32:00,
2013-05-21 23:02:00,50.1,29.0,29.98,SE,130,6.0,11.0,44,0.00,,,0.00,VWS V13.01,2013-05-22 03:02:00,
2013-05-21 23:32:00,50.2,28.6,30.01,ENE,67,0.0,11.0,43,0.00,,,0.00,VWS V13.01,2013-05-22 03:32:00,